Location: *
(34.8620°S, 39.3380°E)
Time: 23:26:11
(UTC+00:00)

CZ-4C R/B - Pass Details

Date: 27 July 2021
Orbit: 602 x 1399 km, 63.4° (Epoch: 20 September)

Event Time Altitude Azimuth Distance (km) Brightness Sun altitude
Rises 02:22:01 0° 348° (NNW) 4,442 5.9 -24.3°
Reaches altitude 10° 02:25:06 10° 352° (N) 3,453 5.3 -23.7°
Maximum altitude 02:33:19 52° 65° (ENE) 1,580 3.9 -22.0°
Drops below altitude 10° 02:40:39 10° 138° (SE) 3,094 5.5 -20.5°
Sets 02:43:15 0° 142° (SE) 3,953 6.1 -20.0°
